Time,TemperatureF,DewpointF,PressureIn,WindDirection,WindDirectionDegrees,WindSpeedMPH,WindSpeedGustMPH,Humidity,HourlyPrecipIn,Conditions,Clouds,dailyrainin,SolarRadiationWatts/m^2,SoftwareType,DateUTC
2013-02-23 00:01:00,45.0,15.0,-100.00,South,185,0.0,4.0,29,0.00,,,0.00,0.000000,,2013-02-23 08:01:00,
2013-02-23 00:11:00,45.0,15.0,-100.00,South,185,0.0,4.0,29,0.00,,,0.00,0.000000,,2013-02-23 08:11:00,
2013-02-23 00:21:00,45.0,15.0,-100.00,South,185,0.0,4.0,29,0.00,,,0.00,0.000000,,2013-02-23 08:21:00,
2013-02-23 00:52:00,43.0,11.0,-100.00,SE,127,0.0,8.0,27,0.00,,,0.00,0.000000,,2013-02-23 08:52:00,
2013-02-23 01:01:00,43.0,11.0,-100.00,SE,127,0.0,8.0,27,0.00,,,0.00,0.000000,,2013-02-23 09:01:00,
2013-02-23 01:11:00,43.0,11.0,-100.00,SE,127,0.0,8.0,27,0.00,,,0.00,0.000000,,2013-02-23 09:11:00,
2013-02-23 01:21:00,43.0,11.0,-100.00,SE,127,0.0,8.0,27,0.00,,,0.00,0.000000,,2013-02-23 09:21:00,
2013-02-23 01:52:00,43.0,13.0,-100.00,WNW,297,1.0,6.0,29,0.00,,,0.00,0.000000,,2013-02-23 09:52:00,
2013-02-23 02:01:00,43.0,13.0,-100.00,WNW,297,1.0,6.0,29,0.00,,,0.00,0.000000,,2013-02-23 10:01:00,
2013-02-23 02:11:00,43.0,13.0,-100.00,WNW,297,1.0,6.0,29,0.00,,,0.00,0.000000,,2013-02-23 10:11:00,
2013-02-23 02:21:00,43.0,13.0,-100.00,WNW,297,1.0,6.0,29,0.00,,,0.00,0.000000,,2013-02-23 10:21:00,
2013-02-23 02:52:00,41.0,13.0,-100.00,South,174,0.0,5.0,31,0.00,,,0.00,0.000000,,2013-02-23 10:52:00,
2013-02-23 03:02:00,41.0,13.0,-100.00,South,174,0.0,5.0,31,0.00,,,0.00,0.000000,,2013-02-23 11:02:00,
2013-02-23 03:11:00,41.0,13.0,-100.00,South,174,0.0,5.0,31,0.00,,,0.00,0.000000,,2013-02-23 11:11:00,
2013-02-23 03:21:00,41.0,13.0,-100.00,South,174,0.0,5.0,31,0.00,,,0.00,0.000000,,2013-02-23 11:21:00,
2013-02-23 03:52:00,40.0,18.0,-100.00,SSW,195,6.0,11.0,40,0.00,,,0.00,0.000000,,2013-02-23 11:52:00,
2013-02-23 04:01:00,40.0,18.0,-100.00,SSW,195,6.0,11.0,40,0.00,,,0.00,0.000000,,2013-02-23 12:01:00,
2013-02-23 04:11:00,40.0,18.0,-100.00,SSW,195,6.0,11.0,40,0.00,,,0.00,0.000000,,2013-02-23 12:11:00,
2013-02-23 04:21:00,40.0,18.0,-100.00,SSW,195,6.0,11.0,40,0.00,,,0.00,0.000000,,2013-02-23 12:21:00,
2013-02-23 04:52:00,40.0,21.0,-100.00,SW,216,0.0,9.0,47,0.00,,,0.00,0.000000,,2013-02-23 12:52:00,
2013-02-23 05:01:00,40.0,21.0,-100.00,SW,216,0.0,9.0,47,0.00,,,0.00,0.000000,,2013-02-23 13:01:00,
2013-02-23 05:11:00,40.0,21.0,-100.00,SW,216,0.0,9.0,47,0.00,,,0.00,0.000000,,2013-02-23 13:11:00,
2013-02-23 05:22:00,40.0,21.0,-100.00,SW,216,0.0,9.0,47,0.00,,,0.00,0.000000,,2013-02-23 13:22:00,
2013-02-23 05:52:00,41.0,22.0,-100.00,SSE,158,1.0,6.0,46,0.00,,,0.00,0.000000,,2013-02-23 13:52:00,
2013-02-23 06:02:00,41.0,22.0,-100.00,SSE,158,1.0,6.0,46,0.00,,,0.00,0.000000,,2013-02-23 14:02:00,
2013-02-23 06:11:00,41.0,22.0,-100.00,SSE,158,1.0,6.0,46,0.00,,,0.00,0.000000,,2013-02-23 14:11:00,
2013-02-23 06:21:00,41.0,22.0,-100.00,SSE,158,1.0,6.0,46,0.00,,,0.00,0.000000,,2013-02-23 14:21:00,
2013-02-23 06:52:00,38.0,21.0,-100.00,SSW,206,2.0,8.0,50,0.00,,,0.00,0.000000,,2013-02-23 14:52:00,
2013-02-23 07:01:00,38.0,21.0,-100.00,SSW,206,2.0,8.0,50,0.00,,,0.00,0.000000,,2013-02-23 15:01:00,
2013-02-23 07:11:00,38.0,21.0,-100.00,SSW,206,2.0,8.0,50,0.00,,,0.00,0.000000,,2013-02-23 15:11:00,
2013-02-23 07:21:00,38.0,21.0,-100.00,SSW,206,2.0,8.0,50,0.00,,,0.00,0.000000,,2013-02-23 15:21:00,
2013-02-23 07:52:00,39.0,21.0,-100.00,SE,128,3.0,11.0,49,0.00,,,0.00,10.000000,,2013-02-23 15:52:00,
2013-02-23 08:01:00,39.0,21.0,-100.00,SE,128,3.0,11.0,49,0.00,,,0.00,10.000000,,2013-02-23 16:01:00,
2013-02-23 08:11:00,39.0,21.0,-100.00,SE,128,3.0,11.0,49,0.00,,,0.00,10.000000,,2013-02-23 16:11:00,
2013-02-23 08:21:00,39.0,21.0,-100.00,SE,128,3.0,11.0,49,0.00,,,0.00,10.000000,,2013-02-23 16:21:00,
2013-02-23 08:52:00,42.0,20.0,-100.00,South,171,8.0,12.0,41,0.00,,,0.00,212.000000,,2013-02-23 16:52:00,
2013-02-23 09:01:00,42.0,20.0,-100.00,South,171,8.0,12.0,41,0.00,,,0.00,212.000000,,2013-02-23 17:01:00,
2013-02-23 09:11:00,42.0,20.0,-100.00,South,171,8.0,12.0,41,0.00,,,0.00,212.000000,,2013-02-23 17:11:00,
2013-02-23 09:21:00,42.0,20.0,-100.00,South,171,8.0,12.0,41,0.00,,,0.00,212.000000,,2013-02-23 17:21:00,
2013-02-23 09:52:00,45.0,20.0,-100.00,SSE,167,9.0,14.0,37,0.00,,,0.00,552.000000,,2013-02-23 17:52:00,
2013-02-23 10:01:00,45.0,20.0,-100.00,SSE,167,9.0,14.0,37,0.00,,,0.00,552.000000,,2013-02-23 18:01:00,
2013-02-23 10:12:00,45.0,20.0,-100.00,SSE,167,9.0,14.0,37,0.00,,,0.00,552.000000,,2013-02-23 18:12:00,
2013-02-23 10:21:00,45.0,20.0,-100.00,SSE,167,9.0,14.0,37,0.00,,,0.00,552.000000,,2013-02-23 18:21:00,
2013-02-23 10:52:00,50.0,21.0,-100.00,South,169,4.0,21.0,31,0.00,,,0.00,764.000000,,2013-02-23 18:52:00,
2013-02-23 11:01:00,50.0,21.0,-100.00,South,169,4.0,21.0,31,0.00,,,0.00,764.000000,,2013-02-23 19:01:00,
2013-02-23 11:11:00,50.0,21.0,-100.00,South,169,4.0,21.0,31,0.00,,,0.00,764.000000,,2013-02-23 19:11:00,
2013-02-23 11:21:00,50.0,21.0,-100.00,South,169,4.0,21.0,31,0.00,,,0.00,764.000000,,2013-02-23 19:21:00,
2013-02-23 11:52:00,55.0,21.0,-100.00,South,170,7.0,17.0,26,0.00,,,0.00,915.000000,,2013-02-23 19:52:00,
2013-02-23 12:01:00,55.0,21.0,-100.00,South,170,7.0,17.0,26,0.00,,,0.00,915.000000,,2013-02-23 20:01:00,
2013-02-23 12:11:00,55.0,21.0,-100.00,South,170,7.0,17.0,26,0.00,,,0.00,915.000000,,2013-02-23 20:11:00,
2013-02-23 12:21:00,55.0,21.0,-100.00,South,170,7.0,17.0,26,0.00,,,0.00,915.000000,,2013-02-23 20:21:00,
2013-02-23 12:52:00,59.0,17.0,-100.00,SE,130,5.0,18.0,19,0.00,,,0.00,976.000000,,2013-02-23 20:52:00,
2013-02-23 13:01:00,59.0,17.0,-100.00,SE,130,5.0,18.0,19,0.00,,,0.00,976.000000,,2013-02-23 21:01:00,
2013-02-23 13:52:00,61.0,2.0,-100.00,South,170,20.0,31.0,9,-99.99,,,0.00,954.000000,,2013-02-23 21:52:00,
2013-02-23 14:01:00,61.0,2.0,-100.00,South,170,20.0,31.0,9,-99.99,,,0.00,954.000000,,2013-02-23 22:01:00,
2013-02-23 14:52:00,59.0,3.0,-100.00,NNW,329,24.0,40.0,10,-99.99,,,0.00,846.000000,,2013-02-23 22:52:00,
2013-02-23 15:01:00,59.0,3.0,-100.00,NNW,329,24.0,40.0,10,-99.99,,,0.00,846.000000,,2013-02-23 23:01:00,
2013-02-23 15:52:00,58.0,15.0,-100.00,ESE,119,15.0,33.0,18,-99.99,,,0.00,658.000000,,2013-02-23 23:52:00,
2013-02-23 16:01:00,58.0,15.0,-100.00,ESE,119,15.0,33.0,18,-99.99,,,0.00,658.000000,,2013-02-24 00:01:00,
2013-02-23 16:11:00,58.0,15.0,-100.00,ESE,119,15.0,33.0,18,-99.99,,,0.00,658.000000,,2013-02-24 00:11:00,
2013-02-23 16:22:00,58.0,15.0,-100.00,ESE,119,15.0,33.0,18,-99.99,,,0.00,658.000000,,2013-02-24 00:22:00,
2013-02-23 16:52:00,52.0,18.0,-100.00,West,279,20.0,35.0,26,0.00,,,0.00,410.000000,,2013-02-24 00:52:00,
2013-02-23 17:01:00,52.0,18.0,-100.00,West,279,20.0,35.0,26,0.00,,,0.00,410.000000,,2013-02-24 01:01:00,
2013-02-23 17:11:00,52.0,18.0,-100.00,West,279,20.0,35.0,26,0.00,,,0.00,410.000000,,2013-02-24 01:11:00,
2013-02-23 17:21:00,52.0,18.0,-100.00,West,279,20.0,35.0,26,0.00,,,0.00,410.000000,,2013-02-24 01:21:00,
2013-02-23 17:52:00,49.0,19.0,-100.00,NW,315,23.0,34.0,30,0.00,,,0.00,71.000000,,2013-02-24 01:52:00,
2013-02-23 18:01:00,49.0,19.0,-100.00,NW,315,23.0,34.0,30,0.00,,,0.00,71.000000,,2013-02-24 02:01:00,
2013-02-23 18:11:00,49.0,19.0,-100.00,NW,315,23.0,34.0,30,0.00,,,0.00,71.000000,,2013-02-24 02:11:00,
2013-02-23 18:21:00,49.0,19.0,-100.00,NW,315,23.0,34.0,30,0.00,,,0.00,71.000000,,2013-02-24 02:21:00,
2013-02-23 18:52:00,46.0,16.0,-100.00,SW,229,41.0,62.0,29,0.00,,,0.00,5.000000,,2013-02-24 02:52:00,
2013-02-23 19:01:00,46.0,16.0,-100.00,SW,229,41.0,62.0,29,0.00,,,0.00,5.000000,,2013-02-24 03:01:00,
2013-02-23 19:11:00,46.0,16.0,-100.00,SW,229,41.0,62.0,29,0.00,,,0.00,5.000000,,2013-02-24 03:11:00,
2013-02-23 19:21:00,46.0,16.0,-100.00,SW,229,41.0,62.0,29,0.00,,,0.00,5.000000,,2013-02-24 03:21:00,
2013-02-23 19:52:00,43.0,14.0,-100.00,SW,225,52.0,70.0,30,0.00,,,0.00,0.000000,,2013-02-24 03:52:00,
2013-02-23 20:01:00,43.0,14.0,-100.00,SW,225,52.0,70.0,30,0.00,,,0.00,0.000000,,2013-02-24 04:01:00,
2013-02-23 20:11:00,43.0,14.0,-100.00,SW,225,52.0,70.0,30,0.00,,,0.00,0.000000,,2013-02-24 04:11:00,
2013-02-23 20:21:00,43.0,14.0,-100.00,SW,225,52.0,70.0,30,0.00,,,0.00,0.000000,,2013-02-24 04:21:00,
2013-02-23 20:52:00,42.0,12.0,-100.00,East,98,50.0,70.0,29,0.00,,,0.00,0.000000,,2013-02-24 04:52:00,
2013-02-23 21:01:00,42.0,12.0,-100.00,East,98,50.0,70.0,29,0.00,,,0.00,0.000000,,2013-02-24 05:01:00,
2013-02-23 21:11:00,42.0,12.0,-100.00,East,98,50.0,70.0,29,0.00,,,0.00,0.000000,,2013-02-24 05:11:00,
2013-02-23 21:21:00,42.0,12.0,-100.00,East,98,50.0,70.0,29,0.00,,,0.00,0.000000,,2013-02-24 05:21:00,
2013-02-23 21:52:00,40.0,10.0,-100.00,SSW,208,50.0,68.0,29,0.00,,,0.00,0.000000,,2013-02-24 05:52:00,
2013-02-23 22:01:00,40.0,10.0,-100.00,SSW,208,50.0,68.0,29,0.00,,,0.00,0.000000,,2013-02-24 06:01:00,
2013-02-23 22:11:00,40.0,10.0,-100.00,SSW,208,50.0,68.0,29,0.00,,,0.00,0.000000,,2013-02-24 06:11:00,
2013-02-23 22:21:00,40.0,10.0,-100.00,SSW,208,50.0,68.0,29,0.00,,,0.00,0.000000,,2013-02-24 06:21:00,
2013-02-23 22:52:00,39.0,9.0,-100.00,SSW,198,49.0,76.0,29,0.00,,,0.00,0.000000,,2013-02-24 06:52:00,
2013-02-23 23:01:00,39.0,9.0,-100.00,SSW,198,49.0,76.0,29,0.00,,,0.00,0.000000,,2013-02-24 07:01:00,
2013-02-23 23:11:00,39.0,9.0,-100.00,SSW,198,49.0,76.0,29,0.00,,,0.00,0.000000,,2013-02-24 07:11:00,
2013-02-23 23:21:00,39.0,9.0,-100.00,SSW,198,49.0,76.0,29,0.00,,,0.00,0.000000,,2013-02-24 07:21:00,
2013-02-23 23:52:00,36.0,8.0,-100.00,WNW,293,42.0,58.0,30,0.00,,,0.00,0.000000,,2013-02-24 07:52:00,